FW8891 Weather Reports


Display with metric or nautical units.
time (UTC)temp
F
wind
direction
speed
MPH
gust
MPH
rain 1hr
in
rain 24hr
in
rain mn
in
humidity
%
barometer
mb
20260510201101 103 98 4.0 9.0 0.00 0.00 0.00 12 1011.8
20260510200559 102 72 3.0 9.0 0.00 0.00 0.00 12 1011.8
20260510200119 103 77 2.0 8.0 0.00 0.00 0.00 12 1011.9
20260510195600 102 139 3.0 9.0 0.00 0.00 0.00 13 1011.9
20260510195057 102 86 4.0 9.0 0.00 0.00 0.00 12 1012.0
20260510194614 103 131 3.0 7.0 0.00 0.00 0.00 13 1012.0
20260510194100 103 152 4.0 10.0 0.00 0.00 0.00 13 1012.0
20260510193601 103 205 4.0 10.0 0.00 0.00 0.00 12 1012.0
20260510193108 103 100 4.0 10.0 0.00 0.00 0.00 13 1011.9
20260510192603 103 113 3.0 8.0 0.00 0.00 0.00 14 1012.0
20260510192058 103 211 2.0 10.0 0.00 0.00 0.00 13 1012.0
20260510191609 103 115 6.0 10.0 0.00 0.00 0.00 13 1012.0
20260510191058 102 172 2.0 9.0 0.00 0.00 0.00 14 1012.0
20260510190559 102 144 3.0 8.0 0.00 0.00 0.00 13 1012.1
20260510190057 101 114 4.0 8.0 0.00 0.00 0.00 13 1012.1
20260510185559 101 166 3.0 7.0 0.00 0.00 0.00 13 1012.2
20260510185057 101 143 3.0 10.0 0.00 0.00 0.00 14 1012.1
20260510184558 100 219 2.0 10.0 0.00 0.00 0.00 14 1012.3
20260510184059 99 100 5.0 10.0 0.00 0.00 0.00 14 1012.3
20260510183559 99 128 4.0 9.0 0.00 0.00 0.00 14 1012.3
20260510183102 99 106 4.0 10.0 0.00 0.00 0.00 14 1012.4
20260510182558 98 156 4.0 10.0 0.00 0.00 0.00 13 1012.5
20260510182058 99 148 4.0 10.0 0.00 0.00 0.00 15 1012.5
20260510181558 98 111 5.0 10.0 0.00 0.00 0.00 13 1012.5
20260510181102 98 155 4.0 9.0 0.00 0.00 0.00 14 1012.6
20260510180559 98 167 4.0 8.0 0.00 0.00 0.00 14 1012.5
20260510180100 97 139 3.0 8.0 0.00 0.00 0.00 13 1012.5
20260510175558 97 167 4.0 9.0 0.00 0.00 0.00 13 1012.6
20260510175100 97 101 3.0 9.0 0.00 0.00 0.00 13 1012.5
20260510174559 97 115 3.0 8.0 0.00 0.00 0.00 15 1012.5
20260510174058 97 92 4.0 7.0 0.00 0.00 0.00 15 1012.5
20260510173558 97 140 4.0 7.0 0.00 0.00 0.00 14 1012.5
20260510173105 97 128 3.0 7.0 0.00 0.00 0.00 15 1012.5
20260510172558 97 164 3.0 7.0 0.00 0.00 0.00 14 1012.4
20260510172058 96 80 1.0 7.0 0.00 0.00 0.00 15 1012.5
20260510171600 95 107 3.0 7.0 0.00 0.00 0.00 14 1012.5
20260510171058 95 120 1.0 7.0 0.00 0.00 0.00 16 1012.5
20260510170557 94 135 3.0 6.0 0.00 0.00 0.00 15 1012.5
20260510170109 94 131 3.0 7.0 0.00 0.00 0.00 15 1012.5
20260510165558 94 143 3.0 7.0 0.00 0.00 0.00 17 1012.4
20260510165058 93 118 2.0 7.0 0.00 0.00 0.00 15 1012.4
20260510164557 93 97 2.0 7.0 0.00 0.00 0.00 15 1012.4
20260510164058 92 132 2.0 4.0 0.00 0.00 0.00 16 1012.4
20260510163558 92 110 2.0 4.0 0.00 0.00 0.00 16 1012.4
20260510163058 91 105 1.0 6.0 0.00 0.00 0.00 17 1012.4
20260510162557 91 158 3.0 7.0 0.00 0.00 0.00 18 1012.3
20260510162058 90 96 2.0 7.0 0.00 0.00 0.00 18 1012.4
20260510161557 90 99 3.0 6.0 0.00 0.00 0.00 16 1012.4
20260510161058 90 121 3.0 6.0 0.00 0.00 0.00 18 1012.4
20260510160558 89 138 2.0 7.0 0.00 0.00 0.00 17 1012.4
20260510160059 88 150 3.0 7.0 0.00 0.00 0.00 18 1012.4
20260510155603 88 158 4.0 7.0 0.00 0.00 0.00 19 1012.4
20260510155102 88 141 2.0 5.0 0.00 0.00 0.00 20 1012.4
20260510154559 87 149 2.0 6.0 0.00 0.00 0.00 19 1012.4
20260510154100 86 142 2.0 6.0 0.00 0.00 0.00 20 1012.4
20260510153559 86 108 4.0 6.0 0.00 0.00 0.00 19 1012.4
20260510153057 86 144 3.0 5.0 0.00 0.00 0.00 21 1012.4
20260510152603 86 116 2.0 4.0 0.00 0.00 0.00 20 1012.3
20260510152100 85 136 1.0 4.0 0.00 0.00 0.00 20 1012.3
20260510151602 85 120 2.0 4.0 0.00 0.00 0.00 19 1012.4
20260510151059 85 124 1.0 3.0 0.00 0.00 0.00 18 1012.3
20260510150559 84 119 0.0 3.0 0.00 0.00 0.00 19 1012.3
20260510150100 83 0 2.0 4.0 0.00 0.00 0.00 18 1012.3
20260510145600 82 165 1.0 5.0 0.00 0.00 0.00 19 1012.2
20260510145100 81 163 2.0 5.0 0.00 0.00 0.00 18 1012.2
20260510144610 81 122 2.0 4.0 0.00 0.00 0.00 18 1012.1
20260510144100 81 138 1.0 3.0 0.00 0.00 0.00 21 1012.0
20260510143600 81 110 1.0 3.0 0.00 0.00 0.00 20 1011.9
20260510143058 81 132 2.0 3.0 0.00 0.00 0.00 19 1012.0
20260510142603 82 120 0.0 2.0 0.00 0.00 0.00 18 1011.9
20260510142102 82 103 0.0 2.0 0.00 0.00 0.00 18 1011.8
20260510141604 81 103 0.0 2.0 0.00 0.00 0.00 19 1011.8
20260510141100 79 0 0.0 0.0 0.00 0.00 0.00 19 1011.8
20260510140559 77 0 0.0 1.0 0.00 0.00 0.00 20 1011.7
20260510140057 76 0 0.0 1.0 0.00 0.00 0.00 22 1011.7
20260510135559 75 0 0.0 0.0 0.00 0.00 0.00 21 1011.6
20260510135100 74 0 0.0 3.0 0.00 0.00 0.00 21 1011.6
20260510134606 73 0 0.0 3.0 0.00 0.00 0.00 21 1011.6
20260510134100 72 330 1.0 3.0 0.00 0.00 0.00 21 1011.6
20260510133558 71 0 0.0 2.0 0.00 0.00 0.00 22 1011.6
20260510133116 71 0 0.0 2.0 0.00 0.00 0.00 22 1011.5
20260510132600 70 316 0.0 2.0 0.00 0.00 0.00 22 1011.5
20260510132101 69 0 0.0 0.0 0.00 0.00 0.00 23 1011.4
20260510131605 69 0 0.0 0.0 0.00 0.00 0.00 23 1011.3
20260510131059 68 0 0.0 0.0 0.00 0.00 0.00 23 1011.3
20260510130600 68 0 0.0 0.0 0.00 0.00 0.00 22 1011.3
20260510130100 68 0 0.0 0.0 0.00 0.00 0.00 22 1011.1
20260510125600 68 0 0.0 1.0 0.00 0.00 0.00 21 1011.1
20260510125059 68 0 0.0 1.0 0.00 0.00 0.00 21 1011.0
20260510124600 68 0 0.0 1.0 0.00 0.00 0.00 21 1010.9
20260510124100 69 321 0.0 1.0 0.00 0.00 0.00 21 1010.8
20260510123558 69 0 0.0 1.0 0.00 0.00 0.00 21 1010.7
20260510123117 69 319 1.0 1.0 0.00 0.00 0.00 21 1010.7
20260510122600 70 0 1.0 2.0 0.00 0.00 0.00 21 1010.7
20260510122100 70 278 0.0 2.0 0.00 0.00 0.00 22 1010.7
20260510121559 70 278 1.0 3.0 0.00 0.00 0.00 21 1010.7
20260510121100 70 266 1.0 3.0 0.00 0.00 0.00 22 1010.6
20260510120600 70 257 1.0 3.0 0.00 0.00 0.00 22 1010.7
20260510120059 70 297 0.0 3.0 0.00 0.00 0.00 21 1010.7
20260510115600 70 259 1.0 3.0 0.00 0.00 0.00 22 1010.7
20260510115059 70 290 2.0 3.0 0.00 0.00 0.00 22 1010.6
20260510114600 70 297 1.0 1.0 0.00 0.00 0.00 22 1010.6
20260510114059 70 269 0.0 1.0 0.00 0.00 0.00 22 1010.5
20260510113559 70 0 0.0 0.0 0.00 0.00 0.00 22 1010.4
20260510113101 70 0 0.0 0.0 0.00 0.00 0.00 20 1010.4
20260510112559 70 0 0.0 0.0 0.00 0.00 0.00 20 1010.6
20260510112059 71 0 0.0 0.0 0.00 0.00 0.00 21 1010.7
20260510111603 71 0 0.0 1.0 0.00 0.00 0.00 20 1010.6
20260510111100 71 0 0.0 2.0 0.00 0.00 0.00 20 1010.4
20260510110600 72 356 0.0 3.0 0.00 0.00 0.00 19 1010.4
20260510110100 72 356 1.0 3.0 0.00 0.00 0.00 19 1010.4
20260510105600 73 0 0.0 3.0 0.00 0.00 0.00 19 1010.3
20260510105100 73 305 2.0 4.0 0.00 0.00 0.00 20 1010.3
20260510104600 73 287 1.0 4.0 0.00 0.00 0.00 20 1010.2
20260510104133 73 259 2.0 4.0 0.00 0.00 0.00 20 1010.2
20260510103559 73 245 2.0 4.0 0.00 0.00 0.00 19 1010.2
20260510103101 74 276 1.0 3.0 0.00 0.00 0.00 19 1010.1
20260510102559 74 270 1.0 3.0 0.00 0.00 0.00 20 1010.1
20260510102100 74 279 1.0 3.0 0.00 0.00 0.00 19 1010.1
20260510101558 74 251 1.0 3.0 0.00 0.00 0.00 18 1010.1
20260510101059 74 271 1.0 3.0 0.00 0.00 0.00 18 1010.1
20260510100600 74 270 1.0 4.0 0.00 0.00 0.00 19 1010.0
20260510100058 74 277 2.0 4.0 0.00 0.00 0.00 19 1009.9
20260510095600 74 250 1.0 2.0 0.00 0.00 0.00 18 1009.9
20260510095100 74 237 1.0 2.0 0.00 0.00 0.00 19 1009.9
20260510094603 74 255 0.0 2.0 0.00 0.00 0.00 19 1009.9
20260510094100 74 278 0.0 2.0 0.00 0.00 0.00 19 1009.8
20260510093600 74 212 0.0 3.0 0.00 0.00 0.00 19 1009.8
20260510093058 75 0 0.0 3.0 0.00 0.00 0.00 19 1009.7
20260510092600 76 172 2.0 3.0 0.00 0.00 0.00 18 1009.7
20260510092100 76 189 0.0 1.0 0.00 0.00 0.00 17 1009.7
20260510091602 76 0 0.0 2.0 0.00 0.00 0.00 19 1009.7
20260510091059 76 287 1.0 2.0 0.00 0.00 0.00 17 1009.7
20260510090559 76 314 1.0 2.0 0.00 0.00 0.00 17 1009.6
20260510085602 76 276 0.0 1.0 0.00 0.00 0.00 19 1009.5
20260510085059 76 281 0.0 1.0 0.00 0.00 0.00 18 1009.4
20260510084559 76 0 0.0 2.0 0.00 0.00 0.00 18 1009.4
20260510084058 77 278 0.0 3.0 0.00 0.00 0.00 18 1009.4
20260510083600 77 307 1.0 4.0 0.00 0.00 0.00 16 1009.4
20260510083058 78 302 2.0 4.0 0.00 0.00 0.00 16 1009.5
20260510082559 78 292 1.0 3.0 0.00 0.00 0.00 17 1009.4
20260510082100 79 280 2.0 4.0 0.00 0.00 0.00 16 1009.4
20260510081604 80 259 2.0 4.0 0.00 0.00 0.00 16 1009.4
20260510081100 80 294 1.0 4.0 0.00 0.00 0.00 16 1009.4
20260510080600 80 284 2.0 4.0 0.00 0.00 0.00 16 1009.4
20260510080059 80 288 2.0 4.0 0.00 0.00 0.00 16 1009.4
20260510075559 80 280 1.0 3.0 0.00 0.00 0.00 16 1009.4
20260510075059 81 275 1.0 2.0 0.00 0.00 0.00 16 1009.4
20260510074600 81 247 1.0 3.0 0.00 0.00 0.00 16 1009.5
20260510074100 81 275 1.0 5.0 0.00 0.00 0.00 15 1009.5
20260510073559 82 268 1.0 5.0 0.00 0.00 0.00 15 1009.4
20260510073114 82 304 2.0 5.0 0.00 0.00 0.00 15 1009.5
20260510072559 82 285 2.0 5.0 0.00 0.00 0.00 16 1009.5
20260510072100 81 293 2.0 5.0 0.00 0.00 0.00 15 1009.5
20260510071606 81 314 2.0 5.0 0.00 0.00 0.00 15 1009.6
20260510071059 81 305 2.0 3.0 0.00 0.00 0.00 15 1009.7
20260510070559 81 323 2.0 3.0 0.00 0.00 0.00 15 1009.6
20260510065602 80 303 1.0 6.0 0.00 0.00 0.00 15 1009.4
20260510065101 81 316 2.0 6.0 0.00 0.00 0.00 15 1009.5
20260510064603 81 326 4.0 6.0 0.00 0.00 0.00 15 1009.4
20260510064059 81 323 3.0 6.0 0.00 0.00 0.00 15 1009.4
20260510063559 81 330 3.0 6.0 0.00 0.00 0.00 15 1009.3
20260510063103 81 338 4.0 6.0 0.00 0.00 0.00 16 1009.3
20260510062602 82 334 3.0 5.0 0.00 0.00 0.00 16 1009.2
20260510062059 82 340 2.0 4.0 0.00 0.00 0.00 16 1009.2
20260510061557 82 302 1.0 3.0 0.00 0.00 0.00 16 1009.1
20260510061102 83 285 2.0 3.0 0.00 0.00 0.00 16 1009.1
20260510060602 84 308 2.0 4.0 0.00 0.00 0.00 15 1009.1
20260510060101 84 290 2.0 4.0 0.00 0.00 0.00 16 1009.1
20260510055559 84 302 1.0 4.0 0.00 0.00 0.00 16 1009.1
20260510055059 84 297 1.0 4.0 0.00 0.00 0.00 16 1009.0
20260510054600 85 275 2.0 4.0 0.00 0.00 0.00 16 1009.1
20260510054059 85 290 1.0 3.0 0.00 0.00 0.00 16 1009.0
20260510053559 85 303 2.0 3.0 0.00 0.00 0.00 16 1009.0
20260510053059 85 287 1.0 3.0 0.00 0.00 0.00 16 1009.0
20260510052559 86 283 1.0 3.0 0.00 0.00 0.00 15 1009.0
20260510052059 86 279 1.0 6.0 0.00 0.00 0.00 15 1009.0
20260510051600 87 314 2.0 6.0 0.00 0.00 0.00 14 1009.1
20260510051058 88 288 2.0 7.0 0.00 0.00 0.00 14 1009.0
20260510050600 88 249 3.0 7.0 0.00 0.00 0.00 14 1009.0
20260510050059 89 264 3.0 7.0 0.00 0.00 0.00 14 1009.0
20260510045600 89 259 4.0 8.0 0.00 0.00 0.00 14 1009.0
20260510045100 90 252 4.0 8.0 0.00 0.00 0.00 14 1008.9
20260510044600 90 321 4.0 8.0 0.00 0.00 0.00 13 1008.9
20260510044059 90 257 4.0 8.0 0.00 0.00 0.00 13 1008.8
20260510043601 90 261 4.0 8.0 0.00 0.00 0.00 14 1008.7
20260510043109 90 257 4.0 8.0 0.00 0.00 0.00 14 1008.7
20260510042559 91 298 4.0 7.0 0.00 0.00 0.00 13 1008.7
20260510042059 91 276 4.0 7.0 0.00 0.00 0.00 13 1008.6
20260510041558 91 288 4.0 7.0 0.00 0.00 0.00 13 1008.5
20260510041059 92 296 4.0 6.0 0.00 0.00 0.00 13 1008.5
20260510040602 92 264 4.0 6.0 0.00 0.00 0.00 13 1008.4
20260510040112 92 220 4.0 6.0 0.00 0.00 0.00 13 1008.3
20260510035559 92 185 3.0 7.0 0.00 0.00 0.00 13 1008.2
20260510035059 92 268 3.0 7.0 0.00 0.00 0.00 13 1008.2
20260510034614 92 245 3.0 7.0 0.00 0.00 0.00 13 1008.1
20260510034059 92 248 3.0 6.0 0.00 0.00 0.00 13 1008.0
20260510033559 92 259 3.0 5.0 0.00 0.00 0.00 13 1007.9
20260510033108 92 240 3.0 5.0 0.00 0.00 0.00 13 1007.9
20260510032559 92 251 3.0 5.0 0.00 0.00 0.00 13 1007.8
20260510032058 92 233 2.0 7.0 0.00 0.00 0.00 13 1007.7
20260510031602 92 261 3.0 7.0 0.00 0.00 0.00 13 1007.7
20260510031058 92 255 3.0 7.0 0.00 0.00 0.00 13 1007.6
20260510030559 92 255 2.0 4.0 0.00 0.00 0.00 13 1007.6
20260510030059 93 195 2.0 7.0 0.00 0.00 0.00 13 1007.6
20260510025559 93 245 2.0 7.0 0.00 0.00 0.00 12 1007.4
20260510025059 93 242 3.0 5.0 0.00 0.00 0.00 12 1007.4
20260510024600 94 157 2.0 6.0 0.00 0.00 0.00 12 1007.3
20260510024059 94 229 3.0 6.0 0.00 0.00 0.00 11 1007.2
20260510023559 95 160 3.0 5.0 0.00 0.00 0.00 11 1007.2
20260510023057 95 179 2.0 6.0 0.00 0.00 0.00 11 1007.1
20260510022559 96 233 3.0 6.0 0.00 0.00 0.00 11 1007.0
20260510022059 96 257 3.0 7.0 0.00 0.00 0.00 11 1007.0
20260510021601 97 134 2.0 7.0 0.00 0.00 0.00 10 1006.9
20260510021059 97 172 2.0 7.0 0.00 0.00 0.00 11 1006.9
20260510020559 98 245 2.0 6.0 0.00 0.00 0.00 11 1006.9
20260510020059 99 146 3.0 7.0 0.00 0.00 0.00 10 1006.9
20260510015559 99 198 4.0 9.0 0.00 0.00 0.00 10 1006.9
20260510015104 99 279 5.0 9.0 0.00 0.00 0.00 10 1006.9
20260510014613 100 179 3.0 12.0 0.00 0.00 0.00 10 1006.8
20260510014059 100 283 6.0 12.0 0.00 0.00 0.00 10 1006.8
20260510013601 100 240 5.0 11.0 0.00 0.00 0.00 10 1006.9
20260510013100 100 179 5.0 11.0 0.00 0.00 0.00 10 1006.8
20260510012559 100 233 6.0 11.0 0.00 0.00 0.00 10 1006.9
20260510012059 101 224 4.0 11.0 0.00 0.00 0.00 10 1006.9
20260510011604 101 243 6.0 11.0 0.00 0.00 0.00 10 1006.9
20260510011059 101 219 4.0 10.0 0.00 0.00 0.00 10 1007.0
20260510010559 101 282 5.0 10.0 0.00 0.00 0.00 10 1007.0
20260510005559 102 257 3.0 9.0 0.00 0.00 0.00 11 1007.0
20260510005059 102 255 6.0 10.0 0.00 0.00 0.00 11 1007.0
20260510004558 102 238 3.0 12.0 0.00 0.00 0.00 11 1006.9
20260510004102 102 191 6.0 12.0 0.00 0.00 0.00 10 1007.0
20260510003559 102 329 6.0 12.0 0.00 0.00 0.00 10 1007.0
20260510003106 102 274 7.0 12.0 0.00 0.00 0.00 10 1006.9
20260510002558 102 274 5.0 11.0 0.00 0.00 0.00 10 1006.9
20260510002058 102 232 6.0 14.0 0.00 0.00 0.00 10 1007.0
20260510001600 102 92 7.0 15.0 0.00 0.00 0.00 10 1007.0
20260510001100 103 255 9.0 15.0 0.00 0.00 0.00 10 1007.1
20260510000601 103 262 8.0 13.0 0.00 0.00 0.00 10 1007.0
20260510000101 103 213 5.0 9.0 0.00 0.00 0.00 10 1007.0
20260509235558 104 208 3.0 12.0 0.00 0.00 0.00 11 1007.2
20260509235059 103 232 5.0 12.0 0.00 0.00 0.00 11 1007.2
20260509234607 103 241 6.0 11.0 0.00 0.00 0.00 11 1007.2
20260509234059 104 209 6.0 11.0 0.00 0.00 0.00 11 1007.2
20260509233602 104 146 4.0 13.0 0.00 0.00 0.00 12 1007.2
20260509233100 103 253 3.0 13.0 0.00 0.00 0.00 12 1007.2
20260509232601 104 262 6.0 14.0 0.00 0.00 0.00 11 1007.4
20260509232059 103 200 7.0 14.0 0.00 0.00 0.00 12 1007.3
20260509231559 103 295 6.0 14.0 0.00 0.00 0.00 11 1007.4
20260509231058 104 264 5.0 14.0 0.00 0.00 0.00 11 1007.4
20260509230558 104 247 6.0 14.0 0.00 0.00 0.00 11 1007.4
20260509230100 104 248 5.0 14.0 0.00 0.00 0.00 11 1007.5
20260509225559 104 271 6.0 12.0 0.00 0.00 0.00 11 1007.5
20260509225058 104 239 6.0 12.0 0.00 0.00 0.00 11 1007.5
20260509224604 104 179 1.0 8.0 0.00 0.00 0.00 11 1007.6
20260509224059 104 312 3.0 12.0 0.00 0.00 0.00 11 1007.6
20260509223559 104 311 4.0 12.0 0.00 0.00 0.00 11 1007.7
20260509223106 104 232 7.0 12.0 0.00 0.00 0.00 11 1007.8
20260509222601 104 161 1.0 8.0 0.00 0.00 0.00 11 1007.8
20260509222058 104 223 3.0 11.0 0.00 0.00 0.00 11 1007.9
20260509221606 104 268 6.0 11.0 0.00 0.00 0.00 11 1008.1
20260509221058 104 265 3.0 11.0 0.00 0.00 0.00 11 1008.0
20260509220602 104 124 6.0 11.0 0.00 0.00 0.00 11 1008.2
20260509220100 103 261 2.0 10.0 0.00 0.00 0.00 11 1008.3
20260509215559 104 257 4.0 10.0 0.00 0.00 0.00 12 1008.3
20260509215059 104 260 5.0 8.0 0.00 0.00 0.00 11 1008.5
20260509214607 104 343 3.0 10.0 0.00 0.00 0.00 12 1008.6
20260509214058 104 101 5.0 10.0 0.00 0.00 0.00 11 1008.6
20260509213600 104 236 6.0 10.0 0.00 0.00 0.00 11 1008.7
20260509213100 104 240 6.0 10.0 0.00 0.00 0.00 12 1008.8
20260509212559 104 150 3.0 7.0 0.00 0.00 0.00 12 1008.9
20260509212059 104 210 2.0 6.0 0.00 0.00 0.00 12 1009.0
20260509211600 103 172 3.0 10.0 0.00 0.00 0.00 12 1009.0
20260509211101 103 256 4.0 10.0 0.00 0.00 0.00 12 1009.0
20260509210600 103 174 2.0 10.0 0.00 0.00 0.00 12 1009.2
20260509210118 103 188 2.0 11.0 0.00 0.00 0.00 13 1009.3
20260509205558 103 109 4.0 11.0 0.00 0.00 0.00 13 1009.4
20260509205100 103 307 2.0 9.0 0.00 0.00 0.00 13 1009.4
20260509204600 103 207 2.0 10.0 0.00 0.00 0.00 13 1009.6
20260509204059 103 243 4.0 12.0 0.00 0.00 0.00 13 1009.7
20260509203602 102 169 5.0 12.0 0.00 0.00 0.00 14 1009.7
20260509203059 102 174 3.0 7.0 0.00 0.00 0.00 14 1009.8
20260509202602 102 75 4.0 10.0 0.00 0.00 0.00 13 1009.8
20260509202102 102 138 5.0 10.0 0.00 0.00 0.00 14 1009.8
20260509201604 102 250 2.0 8.0 0.00 0.00 0.00 14 1009.9